STARLINK-32076, 60350

Orbit data source: Space-Track

STARLINK-32076, 60350 is a payload satellite owned by SpaceX/Seattle (US) in LEO that was launched on Fri, 02 Aug 2024 UTC via an FALCON 9 launch vehicle from the Air Force Eastern Test Range (AFETR). Payload-class satellites include a variety of spacecraft equipped with specific instruments for various scientific and technological missions. These include communications satellites like Starlink; space stations such as the ISS; scientific satellites like the Hubble; Earth observation satellites from companies like Planet Labs, Umbra, and HawkEye 360; GPS; miniature CubeSats for education and research; and military/defense satellites.

Loading next visibility...
Identifier
60350, 2024-136X
Orbit
LEO
Country
Flag of USUS
Related business
Manufacturer
SpaceX/Seattle
Mission
Operational Commercial Communications
Bus & Motor
STARLINK V2M, Unknown motor
Mass
730 kg wet, ~700 kg dry
Launch date (UTC)
2024-08-02 (2 years ago)
Launch vehicle
FALCON 9
Launch site
Air Force Eastern Test Range (AFETR)
Object type
Payload
Rocket body
Debris
Shape & HBR
Box + 2 Pan, 17.7 m
Radar Cross Section
33.884 m², Large (>1 m²)

Expand to show TLE details & history
Last TLE update: 4 hours ago

TLE from 4 hours ago
0 STARLINK-32076
1 60350U 24136X   26125.28487327  .00002176  00000-0  85567-4 0  9998
2 60350  53.1582 172.4894 0001217  90.1849 269.9291 15.30200385 98335
Epoch: 2026-05-05T06:50Z
TLE epoch observation values (Epoch: 2026-05-05T06:50:13.050Z)
Latitude
-0.00004°
Longitude
-153.22692°
Altitude
476.115 km
Speed
7.629 km/s
True Right ascension
11h 29m 57s
True Declination
0° 00' 00"
Sunlit
Object was in full shadow at epoch
Visualization orbit readout
Latitude
Unknown
Longitude
Unknown
Altitude
Unknown
Speed
Unknown
Apparent Right ascension
Unknown
Apparent Declination
Unknown
Sunlit
N/A
Visualization observer readout
Local Sidereal Time
18:39:11
Azimuth
Unknown
Elevation
Unknown
Doppler factor
Unknown
Orbital elements
Apogee altitude
476.305 km
Perigee altitude
474.637 km
Semi-major axis
6,853.608 km
Eccentricity
0.00012
Inclination
53.1582°
RAAN
172.4894°
Arg. of periapsis
90.1849°
True anomaly
269.91515°
Mean anomaly
269.9291°
Eccentric anomaly
269.92213°
Mean motion
3.82529 °/min
Orbital period
94.11 mins
BSTAR
0.000085567
Loading maneuver chart data...
Computing Atmospheric mass density...
Loading historical data...
Loading historical data...
Loading historical data...
Loading historical data...
Loading historical data...
Loading historical data...
Loading historical data...

Documentation

Showing up to 5 results
|